Time,TemperatureF,DewpointF,PressureIn,WindDirection,WindDirectionDegrees,WindSpeedMPH,WindSpeedGustMPH,Humidity,HourlyPrecipIn,Conditions,Clouds,dailyrainin,SoftwareType,DateUTC
2013-05-24 00:01:00,45.0,43.0,-100.00,North,-999,0.0,0.0,93,-99.99,,,-99.99,,2013-05-24 07:01:00,
2013-05-24 00:11:00,45.0,43.0,-100.00,North,-999,0.0,0.0,93,-99.99,,,-99.99,,2013-05-24 07:11:00,
2013-05-24 00:22:00,45.0,43.0,-100.00,North,0,0.0,1.0,93,-99.99,,,-99.99,,2013-05-24 07:22:00,
2013-05-24 00:31:00,45.0,43.0,-100.00,East,90,0.0,1.0,93,-99.99,,,-99.99,,2013-05-24 07:31:00,
2013-05-24 00:42:00,45.0,43.0,-100.00,East,90,0.0,1.0,93,-99.99,,,-99.99,,2013-05-24 07:42:00,
2013-05-24 00:52:00,45.0,43.0,-100.00,NE,45,0.0,1.0,93,-99.99,,,-99.99,,2013-05-24 07:52:00,
2013-05-24 01:02:00,45.0,43.0,-100.00,NE,45,0.0,1.0,93,-99.99,,,-99.99,,2013-05-24 08:02:00,
2013-05-24 01:11:00,45.0,43.0,-100.00,NE,45,0.0,1.0,93,-99.99,,,-99.99,,2013-05-24 08:11:00,
2013-05-24 01:22:00,45.0,43.0,-100.00,NE,45,0.0,2.0,93,-99.99,,,-99.99,,2013-05-24 08:22:00,
2013-05-24 01:32:00,45.0,43.0,-100.00,NE,45,0.0,2.0,93,-99.99,,,-99.99,,2013-05-24 08:32:00,
2013-05-24 01:41:00,45.0,43.0,-100.00,NE,45,0.0,2.0,93,-99.99,,,-99.99,,2013-05-24 08:41:00,
2013-05-24 01:52:00,44.0,43.0,-100.00,North,-999,0.0,0.0,93,-99.99,,,-99.99,,2013-05-24 08:52:00,
2013-05-24 02:01:00,44.0,43.0,-100.00,NE,45,0.0,1.0,93,-99.99,,,-99.99,,2013-05-24 09:01:00,
2013-05-24 02:11:00,44.0,43.0,-100.00,NE,45,0.0,1.0,93,-99.99,,,-99.99,,2013-05-24 09:11:00,
2013-05-24 02:21:00,44.0,42.0,-100.00,North,-999,0.0,0.0,93,-99.99,,,-99.99,,2013-05-24 09:21:00,
2013-05-24 02:32:00,44.0,42.0,-100.00,NE,45,0.0,2.0,93,-99.99,,,-99.99,,2013-05-24 09:32:00,
2013-05-24 02:42:00,44.0,42.0,-100.00,NE,45,0.0,2.0,93,-99.99,,,-99.99,,2013-05-24 09:42:00,
2013-05-24 02:53:00,44.0,42.0,-100.00,North,-999,0.0,0.0,93,-99.99,,,-99.99,,2013-05-24 09:53:00,
2013-05-24 03:02:00,44.0,43.0,-100.00,NE,45,0.0,1.0,93,-99.99,,,-99.99,,2013-05-24 10:02:00,
2013-05-24 03:12:00,44.0,43.0,-100.00,North,-999,0.0,0.0,93,-99.99,,,-99.99,,2013-05-24 10:12:00,
2013-05-24 03:22:00,44.0,43.0,-100.00,North,-999,0.0,0.0,93,-99.99,,,-99.99,,2013-05-24 10:22:00,
2013-05-24 03:32:00,44.0,42.0,-100.00,North,-999,0.0,0.0,93,-99.99,,,-99.99,,2013-05-24 10:32:00,
2013-05-24 03:42:00,44.0,42.0,-100.00,SE,135,0.0,1.0,93,-99.99,,,-99.99,,2013-05-24 10:42:00,
2013-05-24 03:52:00,44.0,42.0,-100.00,SE,135,0.0,1.0,93,-99.99,,,-99.99,,2013-05-24 10:52:00,
2013-05-24 04:02:00,44.0,42.0,-100.00,NE,45,0.0,1.0,93,-99.99,,,-99.99,,2013-05-24 11:02:00,
2013-05-24 04:12:00,44.0,42.0,-100.00,NE,45,0.0,1.0,93,-99.99,,,-99.99,,2013-05-24 11:12:00,
2013-05-24 04:22:00,44.0,42.0,-100.00,North,-999,0.0,0.0,93,-99.99,,,-99.99,,2013-05-24 11:22:00,
2013-05-24 04:32:00,44.0,43.0,-100.00,NE,45,0.0,2.0,93,-99.99,,,-99.99,,2013-05-24 11:32:00,
2013-05-24 04:41:00,44.0,43.0,-100.00,NE,45,0.0,2.0,93,-99.99,,,-99.99,,2013-05-24 11:41:00,
2013-05-24 04:52:00,44.0,43.0,-100.00,NE,45,0.0,1.0,93,-99.99,,,-99.99,,2013-05-24 11:52:00,
2013-05-24 05:01:00,45.0,43.0,-100.00,North,0,1.0,2.0,93,-99.99,,,-99.99,,2013-05-24 12:01:00,
2013-05-24 05:11:00,45.0,43.0,-100.00,North,0,1.0,2.0,93,-99.99,,,-99.99,,2013-05-24 12:11:00,
2013-05-24 05:21:00,45.0,43.0,-100.00,NE,45,0.0,1.0,93,-99.99,,,-99.99,,2013-05-24 12:21:00,
2013-05-24 05:32:00,45.0,43.0,-100.00,SE,135,0.0,2.0,93,-99.99,,,-99.99,,2013-05-24 12:32:00,
2013-05-24 05:42:00,45.0,43.0,-100.00,SE,135,0.0,2.0,93,-99.99,,,-99.99,,2013-05-24 12:42:00,
2013-05-24 05:52:00,45.0,43.0,-100.00,NE,45,0.0,2.0,93,-99.99,,,-99.99,,2013-05-24 12:52:00,
2013-05-24 06:02:00,45.0,43.0,-100.00,East,90,0.0,3.0,93,-99.99,,,-99.99,,2013-05-24 13:02:00,
2013-05-24 06:11:00,45.0,43.0,-100.00,East,90,0.0,3.0,93,-99.99,,,-99.99,,2013-05-24 13:11:00,
2013-05-24 06:21:00,45.0,43.0,-100.00,NE,45,1.0,4.0,93,-99.99,,,-99.99,,2013-05-24 13:21:00,
2013-05-24 06:31:00,45.0,44.0,-100.00,NE,45,0.0,2.0,93,-99.99,,,-99.99,,2013-05-24 13:31:00,
2013-05-24 06:41:00,45.0,44.0,-100.00,NE,45,0.0,2.0,93,-99.99,,,-99.99,,2013-05-24 13:41:00,
2013-05-24 06:52:00,45.0,44.0,-100.00,NE,45,0.0,4.0,93,-99.99,,,-99.99,,2013-05-24 13:52:00,
2013-05-24 07:01:00,45.0,44.0,-100.00,North,0,0.0,1.0,93,-99.99,,,-99.99,,2013-05-24 14:01:00,
2013-05-24 07:11:00,45.0,44.0,-100.00,North,0,0.0,1.0,93,-99.99,,,-99.99,,2013-05-24 14:11:00,
2013-05-24 07:21:00,46.0,44.0,-100.00,NE,45,1.0,3.0,93,-99.99,,,-99.99,,2013-05-24 14:21:00,
2013-05-24 07:31:00,45.0,44.0,-100.00,NE,45,1.0,2.0,93,-99.99,,,-99.99,,2013-05-24 14:31:00,
2013-05-24 07:42:00,45.0,44.0,-100.00,NE,45,1.0,2.0,93,-99.99,,,-99.99,,2013-05-24 14:42:00,
2013-05-24 07:52:00,46.0,44.0,-100.00,NE,45,1.0,2.0,93,-99.99,,,-99.99,,2013-05-24 14:52:00,
2013-05-24 08:02:00,46.0,44.0,-100.00,NE,45,1.0,2.0,93,-99.99,,,-99.99,,2013-05-24 15:02:00,
2013-05-24 08:11:00,46.0,44.0,-100.00,NE,45,1.0,2.0,93,-99.99,,,-99.99,,2013-05-24 15:11:00,
2013-05-24 08:21:00,46.0,44.0,-100.00,NE,45,1.0,3.0,93,-99.99,,,-99.99,,2013-05-24 15:21:00,
2013-05-24 08:32:00,46.0,44.0,-100.00,NE,45,1.0,4.0,93,-99.99,,,-99.99,,2013-05-24 15:32:00,
2013-05-24 08:43:00,46.0,44.0,-100.00,NE,45,1.0,4.0,93,-99.99,,,-99.99,,2013-05-24 15:43:00,
2013-05-24 08:52:00,46.0,44.0,-100.00,NE,45,0.0,4.0,93,-99.99,,,-99.99,,2013-05-24 15:52:00,
2013-05-24 09:03:00,47.0,45.0,-100.00,NE,45,0.0,1.0,93,-99.99,,,-99.99,,2013-05-24 16:03:00,
2013-05-24 09:12:00,47.0,45.0,-100.00,NE,45,0.0,1.0,93,-99.99,,,-99.99,,2013-05-24 16:12:00,
2013-05-24 09:22:00,47.0,45.0,-100.00,West,270,0.0,3.0,93,-99.99,,,-99.99,,2013-05-24 16:22:00,
2013-05-24 09:32:00,47.0,45.0,-100.00,NE,45,1.0,2.0,93,-99.99,,,-99.99,,2013-05-24 16:32:00,
2013-05-24 09:42:00,47.0,45.0,-100.00,NE,45,1.0,2.0,93,-99.99,,,-99.99,,2013-05-24 16:42:00,
2013-05-24 09:52:00,48.0,46.0,-100.00,NE,45,0.0,4.0,93,-99.99,,,-99.99,,2013-05-24 16:52:00,
2013-05-24 10:01:00,48.0,46.0,-100.00,NE,45,0.0,4.0,93,-99.99,,,-99.99,,2013-05-24 17:01:00,
2013-05-24 10:12:00,48.0,46.0,-100.00,NE,45,0.0,4.0,93,-99.99,,,-99.99,,2013-05-24 17:12:00,
2013-05-24 10:22:00,49.0,47.0,-100.00,NE,45,0.0,5.0,93,-99.99,,,-99.99,,2013-05-24 17:22:00,
2013-05-24 10:32:00,49.0,47.0,-100.00,NE,45,0.0,3.0,93,-99.99,,,-99.99,,2013-05-24 17:32:00,
2013-05-24 10:41:00,49.0,47.0,-100.00,NE,45,0.0,3.0,93,-99.99,,,-99.99,,2013-05-24 17:41:00,
2013-05-24 10:52:00,50.0,48.0,-100.00,NE,45,1.0,3.0,93,-99.99,,,-99.99,,2013-05-24 17:52:00,
2013-05-24 11:01:00,50.0,48.0,-100.00,SE,135,2.0,3.0,93,-99.99,,,-99.99,,2013-05-24 18:01:00,
2013-05-24 11:11:00,50.0,48.0,-100.00,SE,135,2.0,3.0,93,-99.99,,,-99.99,,2013-05-24 18:11:00,
2013-05-24 11:21:00,50.0,48.0,-100.00,SE,135,0.0,2.0,93,-99.99,,,-99.99,,2013-05-24 18:21:00,
2013-05-24 11:32:00,50.0,48.0,-100.00,North,-999,0.0,0.0,93,-99.99,,,-99.99,,2013-05-24 18:32:00,
2013-05-24 11:41:00,50.0,48.0,-100.00,North,-999,0.0,0.0,93,-99.99,,,-99.99,,2013-05-24 18:41:00,
2013-05-24 11:52:00,50.0,48.0,-100.00,North,-999,0.0,0.0,93,-99.99,,,-99.99,,2013-05-24 18:52:00,
2013-05-24 12:01:00,51.0,49.0,-100.00,North,-999,0.0,0.0,93,-99.99,,,-99.99,,2013-05-24 19:01:00,
2013-05-24 12:11:00,51.0,49.0,-100.00,North,-999,0.0,0.0,93,-99.99,,,-99.99,,2013-05-24 19:11:00,
2013-05-24 12:21:00,51.0,49.0,-100.00,SE,135,0.0,3.0,93,-99.99,,,-99.99,,2013-05-24 19:21:00,
2013-05-24 12:31:00,52.0,50.0,-100.00,SE,135,0.0,3.0,92,-99.99,,,-99.99,,2013-05-24 19:31:00,
2013-05-24 12:41:00,52.0,50.0,-100.00,SE,135,0.0,3.0,92,-99.99,,,-99.99,,2013-05-24 19:41:00,
2013-05-24 12:52:00,52.0,50.0,-100.00,North,-999,0.0,0.0,92,-99.99,,,-99.99,,2013-05-24 19:52:00,
2013-05-24 13:02:00,50.0,48.0,-100.00,SE,135,0.0,2.0,92,-99.99,,,-99.99,,2013-05-24 20:02:00,
2013-05-24 13:11:00,50.0,48.0,-100.00,SE,135,0.0,2.0,92,-99.99,,,-99.99,,2013-05-24 20:11:00,
2013-05-24 13:21:00,50.0,48.0,-100.00,SW,225,0.0,2.0,92,-99.99,,,-99.99,,2013-05-24 20:21:00,
2013-05-24 13:31:00,50.0,48.0,-100.00,North,-999,0.0,0.0,92,-99.99,,,-99.99,,2013-05-24 20:31:00,
2013-05-24 13:41:00,50.0,48.0,-100.00,North,-999,0.0,0.0,92,-99.99,,,-99.99,,2013-05-24 20:41:00,
2013-05-24 13:52:00,52.0,50.0,-100.00,North,-999,0.0,0.0,92,-99.99,,,-99.99,,2013-05-24 20:52:00,
2013-05-24 14:01:00,50.0,48.0,-100.00,North,-999,0.0,0.0,92,-99.99,,,-99.99,,2013-05-24 21:01:00,
2013-05-24 14:11:00,50.0,48.0,-100.00,North,-999,0.0,0.0,92,-99.99,,,-99.99,,2013-05-24 21:11:00,
2013-05-24 14:21:00,50.0,48.0,-100.00,North,-999,0.0,0.0,92,-99.99,,,-99.99,,2013-05-24 21:21:00,
2013-05-24 14:32:00,51.0,48.0,-100.00,SW,225,0.0,1.0,92,-99.99,,,-99.99,,2013-05-24 21:32:00,
2013-05-24 14:42:00,51.0,49.0,-100.00,North,-999,0.0,0.0,92,-99.99,,,-99.99,,2013-05-24 21:42:00,
2013-05-24 14:53:00,51.0,49.0,-100.00,North,-999,0.0,0.0,92,-99.99,,,-99.99,,2013-05-24 21:53:00,
2013-05-24 15:02:00,51.0,49.0,-100.00,North,-999,0.0,0.0,92,-99.99,,,-99.99,,2013-05-24 22:02:00,
2013-05-24 15:12:00,51.0,48.0,-100.00,South,180,0.0,3.0,92,-99.99,,,-99.99,,2013-05-24 22:12:00,
2013-05-24 15:22:00,51.0,48.0,-100.00,South,180,0.0,3.0,92,-99.99,,,-99.99,,2013-05-24 22:22:00,
2013-05-24 15:32:00,50.0,48.0,-100.00,North,-999,0.0,0.0,92,-99.99,,,-99.99,,2013-05-24 22:32:00,
2013-05-24 15:42:00,50.0,48.0,-100.00,North,-999,0.0,0.0,92,-99.99,,,-99.99,,2013-05-24 22:42:00,
2013-05-24 15:52:00,50.0,48.0,-100.00,North,-999,0.0,0.0,92,-99.99,,,-99.99,,2013-05-24 22:52:00,
2013-05-24 16:02:00,50.0,48.0,-100.00,South,180,0.0,3.0,92,-99.99,,,-99.99,,2013-05-24 23:02:00,
2013-05-24 16:11:00,50.0,48.0,-100.00,South,180,0.0,3.0,92,-99.99,,,-99.99,,2013-05-24 23:11:00,
2013-05-24 16:22:00,50.0,48.0,-100.00,South,180,1.0,2.0,92,-99.99,,,-99.99,,2013-05-24 23:22:00,
2013-05-24 16:32:00,50.0,48.0,-100.00,SW,225,0.0,1.0,92,-99.99,,,-99.99,,2013-05-24 23:32:00,
2013-05-24 16:42:00,50.0,48.0,-100.00,SW,225,0.0,1.0,92,-99.99,,,-99.99,,2013-05-24 23:42:00,
2013-05-24 16:52:00,51.0,49.0,-100.00,SE,135,0.0,1.0,92,-99.99,,,-99.99,,2013-05-24 23:52:00,
2013-05-24 17:01:00,50.0,48.0,-100.00,North,-999,0.0,0.0,92,-99.99,,,-99.99,,2013-05-25 00:01:00,
2013-05-24 17:11:00,50.0,48.0,-100.00,North,-999,0.0,0.0,92,-99.99,,,-99.99,,2013-05-25 00:11:00,
2013-05-24 17:21:00,50.0,48.0,-100.00,North,-999,0.0,0.0,92,-99.99,,,-99.99,,2013-05-25 00:21:00,
2013-05-24 17:32:00,50.0,47.0,-100.00,South,180,0.0,3.0,92,-99.99,,,-99.99,,2013-05-25 00:32:00,
2013-05-24 17:41:00,50.0,47.0,-100.00,South,180,0.0,3.0,92,-99.99,,,-99.99,,2013-05-25 00:41:00,
2013-05-24 17:52:00,50.0,48.0,-100.00,South,180,1.0,3.0,92,-99.99,,,-99.99,,2013-05-25 00:52:00,
2013-05-24 18:01:00,51.0,48.0,-100.00,South,180,1.0,2.0,92,-99.99,,,-99.99,,2013-05-25 01:01:00,
2013-05-24 18:11:00,51.0,48.0,-100.00,South,180,1.0,2.0,92,-99.99,,,-99.99,,2013-05-25 01:11:00,
2013-05-24 18:22:00,50.0,48.0,-100.00,North,-999,0.0,0.0,92,-99.99,,,-99.99,,2013-05-25 01:22:00,
2013-05-24 18:32:00,50.0,47.0,-100.00,North,-999,0.0,0.0,92,-99.99,,,-99.99,,2013-05-25 01:32:00,
2013-05-24 18:41:00,50.0,47.0,-100.00,North,-999,0.0,0.0,92,-99.99,,,-99.99,,2013-05-25 01:41:00,
2013-05-24 18:52:00,50.0,47.0,-100.00,South,180,0.0,3.0,92,-99.99,,,-99.99,,2013-05-25 01:52:00,
2013-05-24 19:01:00,50.0,47.0,-100.00,South,180,1.0,3.0,92,-99.99,,,-99.99,,2013-05-25 02:01:00,
2013-05-24 19:11:00,50.0,47.0,-100.00,South,180,1.0,3.0,92,-99.99,,,-99.99,,2013-05-25 02:11:00,
2013-05-24 19:21:00,49.0,47.0,-100.00,South,180,1.0,3.0,92,-99.99,,,-99.99,,2013-05-25 02:21:00,
2013-05-24 19:31:00,49.0,47.0,-100.00,South,180,1.0,3.0,92,-99.99,,,-99.99,,2013-05-25 02:31:00,
2013-05-24 19:42:00,49.0,47.0,-100.00,South,180,1.0,3.0,92,-99.99,,,-99.99,,2013-05-25 02:42:00,
2013-05-24 19:52:00,49.0,47.0,-100.00,South,180,1.0,3.0,92,-99.99,,,-99.99,,2013-05-25 02:52:00,
2013-05-24 20:01:00,49.0,46.0,-100.00,South,180,1.0,2.0,92,-99.99,,,-99.99,,2013-05-25 03:01:00,
2013-05-24 20:11:00,49.0,46.0,-100.00,South,180,1.0,2.0,92,-99.99,,,-99.99,,2013-05-25 03:11:00,
2013-05-24 20:21:00,48.0,46.0,-100.00,South,180,1.0,4.0,92,-99.99,,,-99.99,,2013-05-25 03:21:00,
2013-05-24 20:32:00,48.0,45.0,-100.00,South,180,0.0,1.0,92,-99.99,,,-99.99,,2013-05-25 03:32:00,
2013-05-24 20:43:00,48.0,45.0,-100.00,South,180,0.0,1.0,92,-99.99,,,-99.99,,2013-05-25 03:43:00,
2013-05-24 20:53:00,48.0,45.0,-100.00,South,180,0.0,3.0,92,-99.99,,,-99.99,,2013-05-25 03:53:00,
2013-05-24 21:02:00,47.0,45.0,-100.00,South,180,0.0,2.0,92,-99.99,,,-99.99,,2013-05-25 04:02:00,
2013-05-24 21:12:00,47.0,45.0,-100.00,South,180,0.0,2.0,92,-99.99,,,-99.99,,2013-05-25 04:12:00,
2013-05-24 21:23:00,47.0,45.0,-100.00,South,180,0.0,3.0,92,-99.99,,,-99.99,,2013-05-25 04:23:00,
2013-05-24 21:32:00,47.0,45.0,-100.00,South,180,0.0,4.0,92,-99.99,,,-99.99,,2013-05-25 04:32:00,
2013-05-24 21:43:00,47.0,45.0,-100.00,South,180,0.0,4.0,92,-99.99,,,-99.99,,2013-05-25 04:43:00,
2013-05-24 21:52:00,47.0,45.0,-100.00,North,-999,0.0,0.0,92,-99.99,,,-99.99,,2013-05-25 04:52:00,
2013-05-24 22:02:00,47.0,45.0,-100.00,North,-999,0.0,0.0,92,-99.99,,,-99.99,,2013-05-25 05:02:00,
2013-05-24 22:12:00,47.0,45.0,-100.00,North,-999,0.0,0.0,92,-99.99,,,-99.99,,2013-05-25 05:12:00,
2013-05-24 22:22:00,47.0,45.0,-100.00,South,180,0.0,1.0,92,-99.99,,,-99.99,,2013-05-25 05:22:00,
2013-05-24 22:32:00,47.0,45.0,-100.00,South,180,0.0,1.0,92,-99.99,,,-99.99,,2013-05-25 05:32:00,
2013-05-24 22:42:00,47.0,45.0,-100.00,South,180,0.0,1.0,92,-99.99,,,-99.99,,2013-05-25 05:42:00,
2013-05-24 22:52:00,47.0,44.0,-100.00,North,-999,0.0,0.0,92,-99.99,,,-99.99,,2013-05-25 05:52:00,
2013-05-24 23:01:00,46.0,44.0,-100.00,North,-999,0.0,0.0,92,-99.99,,,-99.99,,2013-05-25 06:01:00,
2013-05-24 23:12:00,46.0,44.0,-100.00,North,-999,0.0,0.0,92,-99.99,,,-99.99,,2013-05-25 06:12:00,
2013-05-24 23:21:00,46.0,44.0,-100.00,North,-999,0.0,0.0,92,-99.99,,,-99.99,,2013-05-25 06:21:00,
2013-05-24 23:32:00,46.0,44.0,-100.00,North,-999,0.0,0.0,92,-99.99,,,-99.99,,2013-05-25 06:32:00,
2013-05-24 23:42:00,46.0,44.0,-100.00,North,-999,0.0,0.0,92,-99.99,,,-99.99,,2013-05-25 06:42:00,
2013-05-24 23:52:00,46.0,44.0,-100.00,North,-999,0.0,0.0,92,-99.99,,,-99.99,,2013-05-25 06:52:00,